Orbital Elements at Epoch 2459000.5 (2020-May-31.0) TDB
Reference: JPL 12 (heliocentric ecliptic J2000)
Element | Value | Uncertainty (1-sigma) | Units |
e | .1766605481396288 | 3.784e-08 | |
a | 2.42566000006518 | 8.6984e-09 | au |
q | 1.997141574853293 | 9.222e-08 | au |
i | 3.164983433188845 | 5.0344e-06 | deg |
node | 44.21621344700517 | 9.4167e-05 | deg |
peri | 24.60708859874044 | 9.6803e-05 | deg |
M | 273.4482964114803 | 2.1818e-05 | deg |
tp | 2459332.254205155598 (2021-Apr-27.75420516) | 8.4406e-05 | TDB |
period | 1379.886344280538 3.78 | 7.4224e-06 2.032e-08 | d yr |
n | .2608910520001567 | 1.4033e-09 | deg/d |
Q | 2.854178425277067 | 1.0235e-08 | au |
|
| | Orbit Determination Parameters
Additional Information
|